Private Wetterstation Wechselburg
Wetterdaten: Montag, 06.02.2012
Datum Zeit Temp. +2m Bodentemp. Temp.+5cm Temp. Wind Windchill X Diff Temp. Feuchte +2m Feuchte +5cm Sonnenschein Luftdruck Regen Wind Richtung Richtung Sonnenschein UV Taupunkt Windchill Windben
06.02.2012 00:00 -14,7 C -1,7 C -13,8 C -15,5 C -17,0 C 0,0 C 84 % 84 % 0 % 1036,8 hPa 0,0 l/m 0,0 km/h (0 Bft) N-NW 337 0 min 0,0 UV-I -16,8 C -17,0 C 0,0 km/h (0 Bft)
06.02.2012 00:15 -14,9 C -1,9 C -14,0 C -15,9 C -17,8 C 0,0 C 83 % 83 % 0 % 1036,8 hPa 0,0 l/m 0,0 km/h (0 Bft) NW 315 0 min 0,0 UV-I -17,1 C -17,8 C 0,0 km/h (0 Bft)
06.02.2012 00:17 -14,9 C -1,9 C -14,0 C -15,9 C -17,8 C 0,0 C 83 % 83 % 0 % 1036,8 hPa 0,0 l/m 0,0 km/h (0 Bft) NW 315 0 min 0,0 UV-I -17,1 C -17,8 C 0,0 km/h (0 Bft)
06.02.2012 00:20 -14,9 C -1,9 C -13,9 C -15,9 C -18,0 C 0,0 C 83 % 83 % 0 % 1037,0 hPa 0,0 l/m 0,0 km/h (0 Bft) NW 315 0 min 0,0 UV-I -17,1 C -18,0 C 0,0 km/h (0 Bft)
06.02.2012 00:25 -15,1 C -1,9 C -14,0 C -16,1 C -18,1 C 0,0 C 83 % 83 % 0 % 1037,0 hPa 0,0 l/m 0,0 km/h (0 Bft) NW 315 0 min 0,0 UV-I -17,3 C -18,1 C 0,0 km/h (0 Bft)
06.02.2012 00:30 -15,2 C -1,9 C -14,1 C -16,2 C -18,3 C 0,0 C 83 % 83 % 0 % 1037,0 hPa 0,0 l/m 0,0 km/h (0 Bft) NW 315 0 min 0,0 UV-I -17,4 C -18,3 C 0,0 km/h (0 Bft)
06.02.2012 00:35 -15,3 C -1,9 C -14,1 C -16,4 C -18,7 C 0,0 C 83 % 83 % 0 % 1037,0 hPa 0,0 l/m 0,0 km/h (0 Bft) NW 315 0 min 0,0 UV-I -17,5 C -18,7 C 0,0 km/h (0 Bft)
06.02.2012 00:40 -15,3 C -1,9 C -14,1 C -16,5 C -18,9 C 0,0 C 83 % 83 % 0 % 1037,4 hPa 0,0 l/m 0,0 km/h (0 Bft) NW 315 0 min 0,0 UV-I -17,5 C -18,9 C 0,0 km/h (0 Bft)
06.02.2012 00:45 -15,5 C -1,9 C -14,1 C -16,6 C -18,9 C 0,0 C 83 % 83 % 0 % 1037,4 hPa 0,0 l/m 0,0 km/h (0 Bft) NW 315 0 min 0,0 UV-I -17,7 C -18,9 C 0,0 km/h (0 Bft)
06.02.2012 00:50 -15,6 C -1,9 C -14,3 C -16,7 C -18,9 C 0,0 C 83 % 83 % 0 % 1037,4 hPa 0,0 l/m 0,0 km/h (0 Bft) NW 315 0 min 0,0 UV-I -17,8 C -18,9 C 0,0 km/h (0 Bft)
06.02.2012 00:55 -15,6 C -2,0 C -14,5 C -16,6 C -18,7 C 0,0 C 83 % 83 % 0 % 1037,4 hPa 0,0 l/m 0,0 km/h (0 Bft) NO 45 0 min 0,0 UV-I -17,8 C -18,7 C 0,0 km/h (0 Bft)
06.02.2012 01:00 -15,5 C -2,0 C -14,5 C -16,4 C -18,3 C 0,0 C 83 % 83 % 0 % 1037,5 hPa 0,0 l/m 0,0 km/h (0 Bft) NO 45 0 min 0,0 UV-I -17,7 C -18,3 C 0,0 km/h (0 Bft)
06.02.2012 01:11 -15,3 C -2,0 C -14,5 C -16,1 C -17,8 C 0,0 C 83 % 83 % 0 % 1037,5 hPa 0,0 l/m 0,0 km/h (0 Bft) N 0 0 min 0,0 UV-I -17,5 C -17,8 C 0,0 km/h (0 Bft)
06.02.2012 01:20 -15,4 C -2,0 C -14,5 C -16,3 C -18,0 C 0,0 C 83 % 83 % 0 % 1037,5 hPa 0,0 l/m 0,0 km/h (0 Bft) NO 45 0 min 0,0 UV-I -17,6 C -18,0 C 0,0 km/h (0 Bft)
06.02.2012 01:25 -15,3 C -2,0 C -14,5 C -16,2 C -18,1 C 0,0 C 83 % 83 % 0 % 1037,5 hPa 0,0 l/m 0,0 km/h (0 Bft) NO 45 0 min 0,0 UV-I -17,5 C -18,1 C 0,0 km/h (0 Bft)
06.02.2012 01:30 -15,5 C -2,0 C -14,5 C -16,5 C -18,5 C 0,0 C 83 % 83 % 0 % 1037,5 hPa 0,0 l/m 0,0 km/h (0 Bft) NO 45 0 min 0,0 UV-I -17,7 C -18,5 C 0,0 km/h (0 Bft)
06.02.2012 01:35 -15,7 C -2,0 C -14,5 C -16,8 C -18,9 C 0,0 C 83 % 83 % 0 % 1037,5 hPa 0,0 l/m 0,0 km/h (0 Bft) NO 45 0 min 0,0 UV-I -17,9 C -18,9 C 0,0 km/h (0 Bft)
06.02.2012 01:40 -15,7 C -2,0 C -14,5 C -16,8 C -19,1 C 0,0 C 83 % 83 % 0 % 1037,5 hPa 0,0 l/m 0,0 km/h (0 Bft) NO 45 0 min 0,0 UV-I -17,9 C -19,1 C 0,0 km/h (0 Bft)
06.02.2012 01:45 -15,7 C -2,0 C -14,5 C -16,8 C -19,1 C 0,0 C 83 % 83 % 0 % 1037,5 hPa 0,0 l/m 0,0 km/h (0 Bft) NO 45 0 min 0,0 UV-I -17,9 C -19,1 C 0,0 km/h (0 Bft)
06.02.2012 01:50 -15,7 C -2,2 C -14,5 C -16,8 C -19,1 C 0,0 C 83 % 83 % 0 % 1037,5 hPa 0,0 l/m 0,0 km/h (0 Bft) NO 45 0 min 0,0 UV-I -17,9 C -19,1 C 0,0 km/h (0 Bft)
06.02.2012 01:55 -15,9 C -2,1 C -14,7 C -17,1 C -19,5 C 0,0 C 83 % 83 % 0 % 1037,5 hPa 0,0 l/m 0,0 km/h (0 Bft) NO 45 0 min 0,0 UV-I -18,1 C -19,5 C 0,0 km/h (0 Bft)
06.02.2012 02:00 -15,9 C -2,1 C -14,7 C -17,2 C -19,7 C 0,0 C 83 % 83 % 0 % 1037,5 hPa 0,0 l/m 0,0 km/h (0 Bft) NO 45 0 min 0,0 UV-I -18,1 C -19,7 C 0,0 km/h (0 Bft)
06.02.2012 02:10 -16,1 C -2,1 C -14,9 C -17,3 C -19,7 C 0,0 C 83 % 82 % 0 % 1037,5 hPa 0,0 l/m 0,0 km/h (0 Bft) N 0 0 min 0,0 UV-I -18,3 C -19,7 C 0,0 km/h (0 Bft)
06.02.2012 02:20 -16,3 C -2,1 C -14,9 C -17,4 C -19,5 C 0,0 C 82 % 82 % 0 % 1037,5 hPa 0,0 l/m 0,0 km/h (0 Bft) NO 45 0 min 0,0 UV-I -18,6 C -19,5 C 0,0 km/h (0 Bft)
06.02.2012 02:25 -16,4 C -2,1 C -14,9 C -17,4 C -19,5 C 0,0 C 82 % 82 % 0 % 1037,5 hPa 0,0 l/m 0,0 km/h (0 Bft) NO 45 0 min 0,0 UV-I -18,7 C -19,5 C 0,0 km/h (0 Bft)
06.02.2012 02:30 -16,5 C -2,1 C -14,9 C -17,5 C -19,5 C 0,0 C 82 % 82 % 0 % 1037,5 hPa 0,0 l/m 0,0 km/h (0 Bft) N-NO 22 0 min 0,0 UV-I -18,8 C -19,5 C 0,0 km/h (0 Bft)
06.02.2012 02:35 -16,5 C -2,1 C -14,9 C -17,5 C -19,5 C 0,0 C 82 % 83 % 0 % 1037,5 hPa 0,0 l/m 0,0 km/h (0 Bft) N-NO 22 0 min 0,0 UV-I -18,8 C -19,5 C 0,0 km/h (0 Bft)
06.02.2012 02:40 -16,5 C -2,1 C -14,9 C -17,5 C -19,5 C 0,0 C 83 % 83 % 0 % 1037,5 hPa 0,0 l/m 0,0 km/h (0 Bft) N-NO 22 0 min 0,0 UV-I -18,7 C -19,5 C 0,0 km/h (0 Bft)
06.02.2012 02:45 -16,5 C -2,1 C -15,1 C -17,6 C -19,7 C 0,0 C 82 % 82 % 0 % 1037,5 hPa 0,0 l/m 0,0 km/h (0 Bft) N-NO 22 0 min 0,0 UV-I -18,8 C -19,7 C 0,0 km/h (0 Bft)
06.02.2012 02:50 -16,7 C -2,1 C -15,2 C -17,7 C -19,7 C 0,0 C 83 % 82 % 0 % 1037,5 hPa 0,0 l/m 0,0 km/h (0 Bft) N-NO 22 0 min 0,0 UV-I -18,9 C -19,7 C 0,0 km/h (0 Bft)
06.02.2012 02:55 -16,7 C -2,1 C -15,3 C -17,8 C -20,1 C 0,0 C 83 % 82 % 0 % 1037,5 hPa 0,0 l/m 0,0 km/h (0 Bft) N-NO 22 0 min 0,0 UV-I -18,9 C -20,1 C 0,0 km/h (0 Bft)
06.02.2012 03:00 -16,5 C -2,1 C -15,3 C -17,6 C -19,9 C 0,0 C 83 % 82 % 0 % 1036,9 hPa 0,0 l/m 0,0 km/h (0 Bft) N-NO 22 0 min 0,0 UV-I -18,7 C -19,9 C 0,0 km/h (0 Bft)
06.02.2012 03:11 -16,7 C -2,1 C -15,3 C -17,8 C -20,1 C 0,0 C 83 % 83 % 0 % 1036,9 hPa 0,0 l/m 0,0 km/h (0 Bft) N 0 0 min 0,0 UV-I -18,9 C -20,1 C 0,0 km/h (0 Bft)
06.02.2012 03:20 -16,5 C -2,3 C -15,6 C -17,6 C -19,7 C 0,0 C 83 % 83 % 0 % 1036,9 hPa 0,0 l/m 0,0 km/h (0 Bft) NO 45 0 min 0,0 UV-I -18,7 C -19,7 C 0,0 km/h (0 Bft)
06.02.2012 03:25 -16,5 C -2,3 C -15,6 C -17,6 C -19,7 C 0,0 C 84 % 83 % 0 % 1036,9 hPa 0,0 l/m 0,0 km/h (0 Bft) NO 45 0 min 0,0 UV-I -18,6 C -19,7 C 0,0 km/h (0 Bft)
06.02.2012 03:30 -16,5 C -2,3 C -15,5 C -17,5 C -19,5 C 0,0 C 84 % 83 % 0 % 1036,9 hPa 0,0 l/m 0,0 km/h (0 Bft) NO 45 0 min 0,0 UV-I -18,6 C -19,5 C 0,0 km/h (0 Bft)
06.02.2012 03:35 -16,5 C -2,3 C -15,5 C -17,6 C -19,7 C 0,0 C 84 % 83 % 0 % 1036,9 hPa 0,0 l/m 0,0 km/h (0 Bft) N-NO 22 0 min 0,0 UV-I -18,6 C -19,7 C 0,0 km/h (0 Bft)
06.02.2012 03:40 -16,5 C -2,3 C -15,3 C -17,6 C -19,7 C 0,0 C 84 % 83 % 0 % 1036,9 hPa 0,0 l/m 0,0 km/h (0 Bft) N-NO 22 0 min 0,0 UV-I -18,6 C -19,7 C 0,0 km/h (0 Bft)
06.02.2012 03:45 -16,5 C -2,3 C -15,3 C -17,6 C -19,9 C 0,0 C 84 % 83 % 0 % 1036,9 hPa 0,0 l/m 0,0 km/h (0 Bft) N-NO 22 0 min 0,0 UV-I -18,6 C -19,9 C 0,0 km/h (0 Bft)
06.02.2012 03:50 -16,5 C -2,3 C -15,3 C -17,6 C -19,9 C 0,0 C 83 % 83 % 0 % 1036,9 hPa 0,0 l/m 0,0 km/h (0 Bft) N-NO 22 0 min 0,0 UV-I -18,7 C -19,9 C 0,0 km/h (0 Bft)
06.02.2012 03:55 -16,5 C -2,3 C -15,5 C -17,7 C -20,1 C 0,0 C 83 % 83 % 0 % 1036,9 hPa 0,0 l/m 0,0 km/h (0 Bft) N-NO 22 0 min 0,0 UV-I -18,7 C -20,1 C 0,0 km/h (0 Bft)
06.02.2012 04:00 -16,7 C -2,3 C -15,6 C -17,9 C -20,3 C 0,0 C 83 % 83 % 0 % 1036,9 hPa 0,0 l/m 0,0 km/h (0 Bft) N-NO 22 0 min 0,0 UV-I -18,9 C -20,3 C 0,0 km/h (0 Bft)
06.02.2012 04:11 -16,7 C -2,3 C -15,7 C -17,8 C -20,1 C 0,0 C 84 % 83 % 0 % 1036,9 hPa 0,0 l/m 0,0 km/h (0 Bft) N 0 0 min 0,0 UV-I -18,7 C -20,1 C 0,0 km/h (0 Bft)
06.02.2012 04:20 -16,8 C -2,3 C -15,7 C -18,0 C -20,3 C 0,0 C 83 % 83 % 0 % 1036,9 hPa 0,0 l/m 0,0 km/h (0 Bft) N-NO 22 0 min 0,0 UV-I -19,0 C -20,3 C 0,0 km/h (0 Bft)
06.02.2012 04:25 -16,9 C -2,4 C -15,7 C -18,1 C -20,4 C 0,0 C 83 % 83 % 0 % 1036,9 hPa 0,0 l/m 0,0 km/h (0 Bft) N-NO 22 0 min 0,0 UV-I -19,1 C -20,4 C 0,0 km/h (0 Bft)
06.02.2012 04:30 -16,9 C -2,4 C -15,7 C -18,1 C -20,6 C 0,0 C 83 % 83 % 0 % 1036,9 hPa 0,0 l/m 0,0 km/h (0 Bft) N-NO 22 0 min 0,0 UV-I -19,1 C -20,6 C 0,0 km/h (0 Bft)
06.02.2012 04:35 -17,0 C -2,4 C -15,7 C -18,3 C -20,8 C 0,0 C 83 % 83 % 0 % 1036,9 hPa 0,0 l/m 0,0 km/h (0 Bft) N-NO 22 0 min 0,0 UV-I -19,2 C -20,8 C 0,0 km/h (0 Bft)
06.02.2012 04:40 -17,1 C -2,4 C -15,7 C -18,4 C -20,9 C 0,0 C 83 % 83 % 0 % 1036,9 hPa 0,0 l/m 0,0 km/h (0 Bft) N-NO 22 0 min 0,0 UV-I -19,3 C -20,9 C 0,0 km/h (0 Bft)
06.02.2012 04:45 -17,1 C -2,4 C -15,9 C -18,4 C -21,1 C 0,0 C 83 % 83 % 0 % 1036,9 hPa 0,0 l/m 0,0 km/h (0 Bft) N-NO 22 0 min 0,0 UV-I -19,3 C -21,1 C 0,0 km/h (0 Bft)
06.02.2012 04:50 -17,3 C -2,4 C -15,9 C -18,6 C -21,1 C 0,0 C 83 % 83 % 0 % 1036,9 hPa 0,0 l/m 0,0 km/h (0 Bft) N-NO 22 0 min 0,0 UV-I -19,5 C -21,1 C 0,0 km/h (0 Bft)
06.02.2012 04:55 -17,3 C -2,4 C -16,0 C -18,6 C -21,3 C 0,0 C 83 % 83 % 0 % 1036,9 hPa 0,0 l/m 0,0 km/h (0 Bft) N-NO 22 0 min 0,0 UV-I -19,5 C -21,3 C 0,0 km/h (0 Bft)
06.02.2012 05:00 -17,3 C -2,4 C -16,0 C -18,7 C -21,5 C 0,0 C 83 % 83 % 0 % 1036,9 hPa 0,0 l/m 0,0 km/h (0 Bft) N-NO 22 0 min 0,0 UV-I -19,5 C -21,5 C 0,0 km/h (0 Bft)
06.02.2012 05:13 -17,5 C -2,4 C -16,1 C -18,8 C -21,3 C 0,0 C 83 % 82 % 0 % 1036,9 hPa 0,0 l/m 0,0 km/h (0 Bft) N 0 0 min 0,0 UV-I -19,7 C -21,3 C 0,0 km/h (0 Bft)
06.02.2012 05:20 -17,6 C -2,5 C -16,3 C -18,8 C -21,1 C 0,0 C 83 % 82 % 0 % 1036,9 hPa 0,0 l/m 0,0 km/h (0 Bft) N-NO 22 0 min 0,0 UV-I -19,8 C -21,1 C 0,0 km/h (0 Bft)
06.02.2012 05:25 -17,5 C -2,5 C -16,4 C -18,7 C -21,0 C 0,0 C 83 % 82 % 0 % 1036,9 hPa 0,0 l/m 0,0 km/h (0 Bft) NO 45 0 min 0,0 UV-I -19,7 C -21,0 C 0,0 km/h (0 Bft)
06.02.2012 05:30 -17,5 C -2,5 C -16,3 C -18,7 C -21,0 C 0,0 C 83 % 82 % 0 % 1036,9 hPa 0,0 l/m 0,0 km/h (0 Bft) NO 45 0 min 0,0 UV-I -19,7 C -21,0 C 0,0 km/h (0 Bft)
06.02.2012 05:35 -17,5 C -2,5 C -16,4 C -18,6 C -20,9 C 0,0 C 83 % 82 % 0 % 1036,9 hPa 0,0 l/m 0,0 km/h (0 Bft) NO 45 0 min 0,0 UV-I -19,7 C -20,9 C 0,0 km/h (0 Bft)
06.02.2012 05:40 -17,5 C -2,5 C -16,4 C -18,7 C -21,1 C 0,0 C 83 % 82 % 0 % 1036,9 hPa 0,0 l/m 0,0 km/h (0 Bft) NO 45 0 min 0,0 UV-I -19,7 C -21,1 C 0,0 km/h (0 Bft)
06.02.2012 05:45 -17,6 C -2,5 C -16,5 C -18,8 C -21,3 C 0,0 C 83 % 82 % 0 % 1036,9 hPa 0,0 l/m 0,0 km/h (0 Bft) NO 45 0 min 0,0 UV-I -19,8 C -21,3 C 0,0 km/h (0 Bft)
06.02.2012 05:50 -17,7 C -2,5 C -16,5 C -18,9 C -21,3 C 0,0 C 83 % 82 % 0 % 1036,9 hPa 0,0 l/m 0,0 km/h (0 Bft) NO 45 0 min 0,0 UV-I -19,9 C -21,3 C 0,0 km/h (0 Bft)
06.02.2012 05:55 -17,7 C -2,5 C -16,6 C -19,0 C -21,5 C 0,0 C 83 % 82 % 0 % 1036,9 hPa 0,0 l/m 0,0 km/h (0 Bft) NO 45 0 min 0,0 UV-I -19,9 C -21,5 C 0,0 km/h (0 Bft)
06.02.2012 06:00 -17,7 C -2,5 C -16,5 C -19,0 C -21,5 C 0,0 C 83 % 82 % 0 % 1037,2 hPa 0,0 l/m 0,0 km/h (0 Bft) NO 45 0 min 0,0 UV-I -19,9 C -21,5 C 0,0 km/h (0 Bft)
06.02.2012 06:11 -17,7 C -2,5 C -16,5 C -19,0 C -21,6 C 0,0 C 83 % 82 % 0 % 1037,2 hPa 0,0 l/m 0,0 km/h (0 Bft) N 0 0 min 0,0 UV-I -19,9 C -21,6 C 0,0 km/h (0 Bft)
06.02.2012 06:20 -17,7 C -2,7 C -16,8 C -19,0 C -21,6 C 0,0 C 83 % 82 % 0 % 1037,2 hPa 0,0 l/m 0,0 km/h (0 Bft) N-NO 22 0 min 0,0 UV-I -19,9 C -21,6 C 0,0 km/h (0 Bft)
06.02.2012 06:25 -17,8 C -2,7 C -16,9 C -19,1 C -21,6 C 0,0 C 83 % 82 % 0 % 1037,2 hPa 0,0 l/m 0,0 km/h (0 Bft) N-NO 22 0 min 0,0 UV-I -20,0 C -21,6 C 0,0 km/h (0 Bft)
06.02.2012 06:30 -17,7 C -2,7 C -16,9 C -19,0 C -21,6 C 0,0 C 83 % 82 % 0 % 1037,2 hPa 0,0 l/m 0,0 km/h (0 Bft) NO 45 0 min 0,0 UV-I -19,9 C -21,6 C 0,0 km/h (0 Bft)
06.02.2012 06:35 -17,9 C -2,7 C -16,8 C -19,1 C -21,6 C 0,0 C 83 % 82 % 0 % 1037,2 hPa 0,0 l/m 0,0 km/h (0 Bft) NO 45 0 min 0,0 UV-I -20,1 C -21,6 C 0,0 km/h (0 Bft)
06.02.2012 06:40 -17,9 C -2,7 C -16,9 C -19,1 C -21,5 C 0,0 C 83 % 82 % 0 % 1037,2 hPa 0,0 l/m 0,0 km/h (0 Bft) NO 45 0 min 0,0 UV-I -20,1 C -21,5 C 0,0 km/h (0 Bft)
06.02.2012 06:45 -17,9 C -2,7 C -16,9 C -19,1 C -21,5 C 0,0 C 83 % 82 % 0 % 1037,2 hPa 0,0 l/m 0,0 km/h (0 Bft) N-NO 22 0 min 0,0 UV-I -20,1 C -21,5 C 0,0 km/h (0 Bft)
06.02.2012 06:50 -18,0 C -2,7 C -16,9 C -19,2 C -21,6 C 0,0 C 83 % 82 % 0 % 1037,2 hPa 0,0 l/m 0,0 km/h (0 Bft) N-NO 22 0 min 0,0 UV-I -20,2 C -21,6 C 0,0 km/h (0 Bft)
06.02.2012 06:55 -18,1 C -2,7 C -16,9 C -19,3 C -21,8 C 0,0 C 82 % 82 % 0 % 1037,2 hPa 0,0 l/m 0,0 km/h (0 Bft) N-NO 22 0 min 0,0 UV-I -20,4 C -21,8 C 0,0 km/h (0 Bft)
06.02.2012 07:00 -18,1 C -2,7 C -16,9 C -19,4 C -22,0 C 0,0 C 82 % 82 % 0 % 1037,2 hPa 0,0 l/m 0,0 km/h (0 Bft) N-NO 22 0 min 0,0 UV-I -20,4 C -22,0 C 0,0 km/h (0 Bft)
06.02.2012 07:11 -18,4 C -2,7 C -16,9 C -19,8 C -22,5 C 0,0 C 82 % 82 % 0 % 1037,2 hPa 0,0 l/m 0,0 km/h (0 Bft) N 0 0 min 0,0 UV-I -20,7 C -22,5 C 0,0 km/h (0 Bft)
06.02.2012 07:20 -18,5 C -2,8 C -17,2 C -19,8 C -22,5 C 0,0 C 82 % 81 % 0 % 1037,2 hPa 0,0 l/m 0,0 km/h (0 Bft) N-NO 22 0 min 0,0 UV-I -20,8 C -22,5 C 0,0 km/h (0 Bft)
06.02.2012 07:25 -18,5 C -2,8 C -17,1 C -19,9 C -22,6 C 0,0 C 82 % 82 % 0 % 1037,2 hPa 0,0 l/m 0,0 km/h (0 Bft) N-NO 22 0 min 0,0 UV-I -20,8 C -22,6 C 0,0 km/h (0 Bft)
06.02.2012 07:30 -18,5 C -2,8 C -17,1 C -19,9 C -22,8 C 0,0 C 82 % 82 % 0 % 1037,2 hPa 0,0 l/m 0,0 km/h (0 Bft) N-NO 22 0 min 0,0 UV-I -20,8 C -22,8 C 0,0 km/h (0 Bft)
06.02.2012 07:35 -18,7 C -2,8 C -17,1 C -20,1 C -22,8 C 0,0 C 82 % 82 % 0 % 1037,2 hPa 0,0 l/m 0,0 km/h (0 Bft) NO 45 0 min 0,0 UV-I -21,0 C -22,8 C 0,0 km/h (0 Bft)
06.02.2012 07:40 -18,7 C -2,8 C -17,2 C -20,1 C -22,8 C 0,0 C 82 % 82 % 0 % 1037,2 hPa 0,0 l/m 0,0 km/h (0 Bft) NO 45 0 min 0,0 UV-I -21,0 C -22,8 C 0,0 km/h (0 Bft)
06.02.2012 07:45 -18,8 C -2,8 C -17,3 C -20,1 C -22,6 C 0,0 C 82 % 81 % 0 % 1037,2 hPa 0,0 l/m 0,0 km/h (0 Bft) NO 45 0 min 0,0 UV-I -21,1 C -22,6 C 0,0 km/h (0 Bft)
06.02.2012 07:50 -18,8 C -2,8 C -17,3 C -20,1 C -22,6 C 0,0 C 82 % 81 % 0 % 1037,2 hPa 0,0 l/m 0,0 km/h (0 Bft) NO 45 0 min 0,0 UV-I -21,1 C -22,6 C 0,0 km/h (0 Bft)
06.02.2012 07:55 -18,8 C -2,8 C -17,3 C -20,1 C -22,6 C 0,0 C 82 % 82 % 0 % 1037,2 hPa 0,0 l/m 0,0 km/h (0 Bft) NO 45 0 min 0,0 UV-I -21,1 C -22,6 C 0,0 km/h (0 Bft)
06.02.2012 08:00 -18,8 C -2,8 C -17,3 C -20,1 C -22,6 C 0,0 C 82 % 81 % 0 % 1037,2 hPa 0,0 l/m 0,0 km/h (0 Bft) NO 45 0 min 0,0 UV-I -21,1 C -22,6 C 0,0 km/h (0 Bft)
06.02.2012 08:10 -18,9 C -2,8 C -17,3 C -20,1 C -22,6 C 0,0 C 82 % 82 % 0 % 1037,2 hPa 0,0 l/m 0,0 km/h (0 Bft) N 0 0 min 0,0 UV-I -21,2 C -22,6 C 0,0 km/h (0 Bft)
06.02.2012 08:20 -18,9 C -2,8 C -17,3 C -20,1 C -22,5 C 0,0 C 82 % 82 % 0 % 1037,2 hPa 0,0 l/m 0,0 km/h (0 Bft) N-NO 22 0 min 0,0 UV-I -21,2 C -22,5 C 0,0 km/h (0 Bft)
06.02.2012 08:25 -18,9 C -2,8 C -17,3 C -19,9 C -22,0 C 0,0 C 82 % 82 % 0 % 1037,2 hPa 0,0 l/m 0,0 km/h (0 Bft) NW 315 0 min 0,0 UV-I -21,2 C -22,0 C 0,0 km/h (0 Bft)
06.02.2012 08:30 -18,7 C -2,8 C -17,3 C -19,6 C -21,5 C 0,0 C 83 % 82 % 0 % 1037,2 hPa 0,0 l/m 0,0 km/h (0 Bft) NW 315 0 min 0,0 UV-I -20,8 C -21,5 C 0,0 km/h (0 Bft)
06.02.2012 08:35 -18,8 C -2,8 C -17,3 C -19,5 C -21,0 C 0,0 C 82 % 82 % 0 % 1037,2 hPa 0,0 l/m 0,0 km/h (0 Bft) NW 315 0 min 0,0 UV-I -21,1 C -21,0 C 0,0 km/h (0 Bft)
06.02.2012 08:40 -18,7 C -2,8 C -17,3 C -19,2 C -20,3 C 0,0 C 83 % 82 % 0 % 1037,2 hPa 0,0 l/m 0,0 km/h (0 Bft) NW 315 0 min 0,0 UV-I -20,8 C -20,3 C 0,0 km/h (0 Bft)
06.02.2012 08:45 -18,7 C -2,8 C -17,1 C -19,0 C -19,7 C 0,0 C 83 % 82 % 0 % 1037,2 hPa 0,0 l/m 0,0 km/h (0 Bft) NW 315 0 min 0,0 UV-I -20,8 C -19,7 C 0,0 km/h (0 Bft)
06.02.2012 08:50 -18,7 C -2,8 C -17,1 C -19,0 C -19,7 C 0,0 C 83 % 82 % 0 % 1037,2 hPa 0,0 l/m 0,0 km/h (0 Bft) NW 315 0 min 0,0 UV-I -20,8 C -19,7 C 0,0 km/h (0 Bft)
06.02.2012 08:55 -18,5 C -2,8 C -16,9 C -19,0 C -19,9 C 0,0 C 83 % 82 % 0 % 1037,2 hPa 0,0 l/m 0,0 km/h (0 Bft) NW 315 0 min 0,0 UV-I -20,7 C -19,9 C 0,0 km/h (0 Bft)
06.02.2012 09:00 -18,5 C -2,9 C -16,9 C -19,0 C -19,9 C 0,0 C 83 % 82 % 0 % 1037,2 hPa 0,0 l/m 0,0 km/h (0 Bft) NW 315 0 min 0,0 UV-I -20,7 C -19,9 C 0,0 km/h (0 Bft)
06.02.2012 09:12 -18,3 C -3,0 C -16,8 C -18,4 C -18,5 C 0,0 C 83 % 82 % 0 % 1037,2 hPa 0,0 l/m 0,0 km/h (0 Bft) N 0 0 min 0,0 UV-I -20,5 C -18,5 C 0,0 km/h (0 Bft)
06.02.2012 09:20 -18,0 C -3,0 C -16,5 C -18,1 C -18,3 C 0,0 C 84 % 82 % 0 % 1037,2 hPa 0,0 l/m 0,0 km/h (0 Bft) NW 315 0 min 0,0 UV-I -20,0 C -18,3 C 0,0 km/h (0 Bft)
06.02.2012 09:25 -17,7 C -3,0 C -16,3 C -17,9 C -18,3 C 0,0 C 84 % 82 % 0 % 1037,2 hPa 0,0 l/m 0,0 km/h (0 Bft) W-NW 292 0 min 0,0 UV-I -19,7 C -18,3 C 0,0 km/h (0 Bft)
06.02.2012 09:30 -17,7 C -3,0 C -16,3 C -17,9 C -18,3 C 0,0 C 84 % 82 % 0 % 1037,2 hPa 0,0 l/m 0,0 km/h (0 Bft) W-NW 292 0 min 0,0 UV-I -19,7 C -18,3 C 0,0 km/h (0 Bft)
06.02.2012 09:35 -17,5 C -3,0 C -16,1 C -17,7 C -18,2 C 0,0 C 84 % 83 % 0 % 1037,2 hPa 0,0 l/m 0,3 km/h (0 Bft) W-NW 292 0 min 0,0 UV-I -19,5 C -18,2 C 2,6 km/h (1 Bft)
06.02.2012 09:40 -17,3 C -3,0 C -16,1 C -17,6 C -18,2 C 0,0 C 84 % 82 % 0 % 1037,2 hPa 0,0 l/m 0,3 km/h (0 Bft) W-NW 292 0 min 0,0 UV-I -19,3 C -18,2 C 2,1 km/h (1 Bft)
06.02.2012 09:45 -17,3 C -3,0 C -16,1 C -17,5 C -18,0 C 0,0 C 84 % 82 % 0 % 1037,2 hPa 0,0 l/m 0,3 km/h (0 Bft) W-NW 292 0 min 0,0 UV-I -19,3 C -18,0 C 0,0 km/h (0 Bft)
06.02.2012 09:50 -17,2 C -3,1 C -16,0 C -17,2 C -17,2 C 0,0 C 84 % 82 % 0 % 1037,2 hPa 0,0 l/m 0,2 km/h (0 Bft) W-NW 292 0 min 0,0 UV-I -19,2 C -17,2 C 0,0 km/h (0 Bft)
06.02.2012 09:55 -16,9 C -3,1 C -15,7 C -16,6 C -16,6 C 0,3 C 84 % 82 % 8 % 1037,2 hPa 0,0 l/m 0,3 km/h (0 Bft) W 270 0 min 0,0 UV-I -18,9 C -16,6 C 2,7 km/h (1 Bft)
06.02.2012 10:00 -16,9 C -3,1 C -15,7 C -16,2 C -16,2 C 0,7 C 84 % 82 % 18 % 1037,2 hPa 0,0 l/m 0,3 km/h (0 Bft) W 270 0 min 0,0 UV-I -18,9 C -16,2 C 2,7 km/h (1 Bft)
06.02.2012 10:12 -16,5 C -3,1 C -15,5 C -16,6 C -16,8 C 0,0 C 84 % 82 % 0 % 1037,2 hPa 0,0 l/m 0,8 km/h (0 Bft) N 0 0 min 0,0 UV-I -18,6 C -16,8 C 0,0 km/h (0 Bft)
06.02.2012 10:20 -16,2 C -3,1 C -15,1 C -16,2 C -16,2 C 0,0 C 84 % 82 % 0 % 1037,2 hPa 0,0 l/m 0,8 km/h (0 Bft) W 270 0 min 0,0 UV-I -18,3 C -16,2 C 3,7 km/h (1 Bft)
06.02.2012 10:25 -16,1 C -3,0 C -15,2 C -16,3 C -16,8 C 0,0 C 84 % 82 % 0 % 1037,2 hPa 0,0 l/m 1,9 km/h (1 Bft) W-SW 247 0 min 0,0 UV-I -18,2 C -16,8 C 5,6 km/h (1 Bft)
06.02.2012 10:30 -16,1 C -3,0 C -15,2 C -16,6 C -17,5 C 0,0 C 84 % 82 % 0 % 1037,2 hPa 0,0 l/m 2,4 km/h (1 Bft) SW 225 0 min 0,0 UV-I -18,2 C -17,5 C 1,9 km/h (1 Bft)
06.02.2012 10:35 -15,9 C -3,0 C -14,9 C -15,9 C -16,0 C 0,0 C 84 % 82 % 0 % 1037,2 hPa 0,0 l/m 1,8 km/h (1 Bft) W-SW 247 0 min 0,0 UV-I -18,0 C -16,0 C 3,1 km/h (1 Bft)
06.02.2012 10:40 -15,7 C -3,0 C -14,9 C -15,7 C -15,8 C 0,0 C 84 % 82 % 0 % 1037,2 hPa 0,0 l/m 1,6 km/h (1 Bft) W-SW 247 0 min 0,0 UV-I -17,8 C -15,8 C 0,0 km/h (0 Bft)
06.02.2012 10:45 -15,5 C -3,0 C -14,5 C -14,9 C -14,9 C 0,6 C 84 % 82 % 16 % 1037,2 hPa 0,0 l/m 1,8 km/h (1 Bft) W-SW 247 0 min 0,0 UV-I -17,6 C -14,9 C 0,0 km/h (0 Bft)
06.02.2012 10:50 -15,3 C -3,0 C -14,5 C -14,1 C -14,1 C 1,2 C 84 % 82 % 32 % 1037,2 hPa 0,0 l/m 0,8 km/h (0 Bft) O 90 0 min 0,0 UV-I -17,4 C -14,1 C 0,0 km/h (0 Bft)
06.02.2012 10:55 -15,1 C -3,2 C -14,5 C -13,8 C -13,8 C 1,3 C 84 % 82 % 34 % 1037,2 hPa 0,0 l/m 0,5 km/h (0 Bft) NW 315 0 min 0,0 UV-I -17,2 C -13,8 C 0,0 km/h (0 Bft)
06.02.2012 11:00 -15,1 C -3,0 C -14,4 C -13,8 C -13,8 C 1,3 C 84 % 82 % 34 % 1037,2 hPa 0,0 l/m 0,5 km/h (0 Bft) NW 315 0 min 0,0 UV-I -17,2 C -13,8 C 2,6 km/h (1 Bft)
06.02.2012 11:11 -14,9 C -3,1 C -14,3 C -13,8 C -13,8 C 1,1 C 83 % 81 % 29 % 1037,2 hPa 0,0 l/m 1,4 km/h (1 Bft) N 0 0 min 0,0 UV-I -17,1 C -13,8 C 3,7 km/h (1 Bft)
06.02.2012 11:20 -14,8 C -3,2 C -14,0 C -14,1 C -14,1 C 0,7 C 82 % 80 % 18 % 1037,2 hPa 0,0 l/m 1,9 km/h (1 Bft) NW 315 0 min 0,0 UV-I -17,2 C -14,1 C 2,6 km/h (1 Bft)
06.02.2012 11:25 -14,5 C -3,2 C -13,9 C -13,8 C -13,8 C 0,7 C 82 % 79 % 18 % 1037,2 hPa 0,0 l/m 1,8 km/h (1 Bft) O 90 0 min 0,0 UV-I -16,9 C -13,8 C 3,1 km/h (1 Bft)
06.02.2012 11:30 -14,5 C -3,2 C -13,7 C -13,3 C -13,3 C 1,2 C 81 % 79 % 32 % 1037,2 hPa 0,0 l/m 1,8 km/h (1 Bft) N-NO 22 0 min 0,0 UV-I -17,0 C -13,3 C 1,8 km/h (1 Bft)
06.02.2012 11:35 -14,1 C -3,2 C -13,7 C -13,0 C -13,0 C 1,1 C 82 % 79 % 29 % 1037,2 hPa 0,0 l/m 1,3 km/h (1 Bft) NW 315 0 min 0,0 UV-I -16,5 C -13,0 C 6,4 km/h (2 Bft)
06.02.2012 11:40 -14,1 C -3,2 C -13,7 C -13,2 C -13,2 C 0,9 C 81 % 78 % 24 % 1037,2 hPa 0,0 l/m 1,9 km/h (1 Bft) O-NO 67 0 min 0,0 UV-I -16,6 C -13,2 C 3,9 km/h (1 Bft)
06.02.2012 11:45 -14,0 C -3,2 C -13,6 C -14,0 C -14,1 C 0,0 C 80 % 78 % 0 % 1037,2 hPa 0,0 l/m 2,7 km/h (1 Bft) NO 45 0 min 0,0 UV-I -16,7 C -14,1 C 3,1 km/h (1 Bft)
06.02.2012 11:50 -13,9 C -3,2 C -13,5 C -13,4 C -13,4 C 0,5 C 79 % 78 % 13 % 1037,2 hPa 0,0 l/m 2,4 km/h (1 Bft) N-NO 22 0 min 0,0 UV-I -16,7 C -13,4 C 4,7 km/h (1 Bft)
06.02.2012 11:55 -13,7 C -3,2 C -13,4 C -11,0 C -11,0 C 2,7 C 80 % 78 % 71 % 1037,2 hPa 0,0 l/m 1,0 km/h (0 Bft) NW 315 0 min 0,0 UV-I -16,4 C -11,0 C 1,6 km/h (1 Bft)
06.02.2012 12:00 -13,7 C -3,2 C -13,3 C -10,6 C -10,6 C 3,1 C 79 % 78 % 82 % 1037,2 hPa 0,0 l/m 1,4 km/h (1 Bft) O-NO 67 0 min 0,0 UV-I -16,5 C -10,6 C 4,5 km/h (1 Bft)
06.02.2012 12:12 -13,7 C -3,2 C -13,1 C -9,1 C -9,1 C 4,6 C 78 % 77 % 100 % 1037,2 hPa 0,0 l/m 1,1 km/h (1 Bft) N 0 12 min 0,0 UV-I -16,7 C -9,1 C 6,9 km/h (2 Bft)
06.02.2012 12:20 -13,5 C -3,2 C -12,9 C -8,8 C -8,8 C 4,7 C 77 % 76 % 100 % 1037,2 hPa 0,0 l/m 1,9 km/h (1 Bft) O 90 8 min 0,0 UV-I -16,6 C -8,8 C 3,7 km/h (1 Bft)
06.02.2012 12:25 -13,3 C -3,2 C -12,9 C -10,2 C -10,2 C 3,1 C 77 % 76 % 82 % 1037,2 hPa 0,0 l/m 2,3 km/h (1 Bft) O-SO 112 0 min 0,0 UV-I -16,5 C -10,2 C 0,0 km/h (0 Bft)
06.02.2012 12:30 -13,3 C -3,2 C -12,7 C -9,9 C -9,9 C 3,4 C 77 % 76 % 89 % 1037,2 hPa 0,0 l/m 1,9 km/h (1 Bft) O 90 5 min 0,0 UV-I -16,5 C -9,9 C 3,7 km/h (1 Bft)
06.02.2012 12:35 -13,2 C -3,2 C -12,7 C -10,1 C -10,1 C 3,1 C 77 % 76 % 82 % 1037,2 hPa 0,0 l/m 1,6 km/h (1 Bft) NO 45 0 min 0,0 UV-I -16,4 C -10,1 C 0,0 km/h (0 Bft)
06.02.2012 12:40 -13,1 C -3,2 C -12,7 C -10,0 C -10,0 C 3,1 C 77 % 76 % 82 % 1037,2 hPa 0,0 l/m 1,3 km/h (1 Bft) N 360 0 min 0,0 UV-I -16,3 C -10,0 C 1,8 km/h (1 Bft)
06.02.2012 12:45 -12,9 C -3,1 C -12,5 C -10,0 C -10,0 C 2,9 C 76 % 75 % 76 % 1037,2 hPa 0,0 l/m 1,1 km/h (1 Bft) NW 315 0 min 0,0 UV-I -16,2 C -10,0 C 4,3 km/h (1 Bft)
06.02.2012 12:50 -12,9 C -3,1 C -12,4 C -10,3 C -10,3 C 2,6 C 76 % 75 % 68 % 1037,2 hPa 0,0 l/m 1,9 km/h (1 Bft) W 270 0 min 0,0 UV-I -16,2 C -10,3 C 2,9 km/h (1 Bft)
06.02.2012 12:55 -12,9 C -3,1 C -12,3 C -10,4 C -10,4 C 2,5 C 76 % 75 % 66 % 1037,2 hPa 0,0 l/m 1,3 km/h (1 Bft) O-SO 112 0 min 0,0 UV-I -16,2 C -10,4 C 9,7 km/h (2 Bft)
06.02.2012 13:00 -12,8 C -3,1 C -12,3 C -10,4 C -10,4 C 2,4 C 76 % 75 % 63 % 1037,2 hPa 0,0 l/m 1,0 km/h (0 Bft) NO 45 0 min 0,0 UV-I -16,1 C -10,4 C 4,2 km/h (1 Bft)
06.02.2012 13:11 -12,5 C -3,1 C -12,1 C -9,4 C -9,4 C 3,1 C 75 % 74 % 82 % 1037,2 hPa 0,0 l/m 1,8 km/h (1 Bft) N 0 0 min 0,0 UV-I -16,0 C -9,4 C 4,0 km/h (1 Bft)
06.02.2012 13:20 -12,4 C -3,1 C -11,9 C -11,1 C -11,1 C 1,3 C 74 % 74 % 34 % 1037,2 hPa 0,0 l/m 3,2 km/h (1 Bft) W-SW 247 0 min 0,0 UV-I -16,1 C -11,1 C 5,3 km/h (1 Bft)
06.02.2012 13:25 -12,3 C -3,1 C -11,7 C -11,7 C -11,7 C 0,6 C 73 % 74 % 16 % 1037,2 hPa 0,0 l/m 3,9 km/h (1 Bft) NO 45 0 min 0,0 UV-I -16,1 C -11,7 C 5,3 km/h (1 Bft)
06.02.2012 13:30 -12,2 C -3,1 C -11,7 C -10,6 C -10,6 C 1,6 C 73 % 73 % 42 % 1037,2 hPa 0,0 l/m 3,4 km/h (1 Bft) SO 135 0 min 0,0 UV-I -16,0 C -10,6 C 1,8 km/h (1 Bft)
06.02.2012 13:35 -12,1 C -3,1 C -11,6 C -9,4 C -9,4 C 2,7 C 73 % 73 % 71 % 1037,2 hPa 0,0 l/m 2,6 km/h (1 Bft) N 360 0 min 0,0 UV-I -15,9 C -9,4 C 4,3 km/h (1 Bft)
06.02.2012 13:40 -12,1 C -3,1 C -11,5 C -8,2 C -8,2 C 3,9 C 73 % 73 % 100 % 1037,2 hPa 0,0 l/m 2,1 km/h (1 Bft) O 90 5 min 0,0 UV-I -15,9 C -8,2 C 0,0 km/h (0 Bft)
06.02.2012 13:45 -11,7 C -3,0 C -11,5 C -7,8 C -7,8 C 3,9 C 73 % 72 % 100 % 1037,2 hPa 0,0 l/m 1,8 km/h (1 Bft) N-NW 337 5 min 0,0 UV-I -15,5 C -7,8 C 5,5 km/h (1 Bft)
06.02.2012 13:50 -11,7 C -3,0 C -11,3 C -8,2 C -8,2 C 3,5 C 72 % 72 % 92 % 1037,2 hPa 0,0 l/m 2,1 km/h (1 Bft) W-NW 292 5 min 0,0 UV-I -15,7 C -8,2 C 0,0 km/h (0 Bft)
06.02.2012 13:55 -11,6 C -3,0 C -11,1 C -8,8 C -8,8 C 2,8 C 71 % 72 % 74 % 1037,2 hPa 0,0 l/m 3,4 km/h (1 Bft) W-SW 247 0 min 0,0 UV-I -15,8 C -8,8 C 4,0 km/h (1 Bft)
06.02.2012 14:00 -11,5 C -3,0 C -11,1 C -8,3 C -8,3 C 3,2 C 71 % 71 % 84 % 1037,2 hPa 0,0 l/m 2,9 km/h (1 Bft) O-SO 112 0 min 0,0 UV-I -15,7 C -8,3 C 3,5 km/h (1 Bft)
06.02.2012 14:10 -11,5 C -3,0 C -11,1 C -8,8 C -8,8 C 2,7 C 70 % 70 % 71 % 1037,2 hPa 0,0 l/m 3,2 km/h (1 Bft) N 0 0 min 0,0 UV-I -15,8 C -8,8 C 6,6 km/h (2 Bft)
06.02.2012 14:20 -11,3 C -2,8 C -10,9 C -8,4 C -8,4 C 2,9 C 69 % 69 % 76 % 1037,2 hPa 0,0 l/m 2,7 km/h (1 Bft) N 360 0 min 0,0 UV-I -15,8 C -8,4 C 7,6 km/h (2 Bft)
06.02.2012 14:25 -11,3 C -2,8 C -10,7 C -8,0 C -8,0 C 3,3 C 69 % 69 % 87 % 1037,2 hPa 0,0 l/m 2,7 km/h (1 Bft) NW 315 5 min 0,0 UV-I -15,8 C -8,0 C 6,8 km/h (2 Bft)
06.02.2012 14:30 -11,2 C -2,8 C -10,1 C -7,4 C -7,4 C 3,8 C 69 % 69 % 100 % 1037,2 hPa 0,0 l/m 2,4 km/h (1 Bft) N 360 5 min 0,0 UV-I -15,7 C -7,4 C 4,8 km/h (1 Bft)
06.02.2012 14:35 -11,1 C -2,8 C -8,5 C -7,4 C -7,4 C 3,7 C 68 % 65 % 97 % 1037,2 hPa 0,0 l/m 2,3 km/h (1 Bft) O-NO 67 5 min 0,0 UV-I -15,8 C -7,4 C 2,3 km/h (1 Bft)
06.02.2012 14:40 -11,1 C -2,8 C -7,7 C -7,6 C -7,6 C 3,5 C 67 % 65 % 92 % 1037,2 hPa 0,0 l/m 2,6 km/h (1 Bft) O-NO 67 5 min 0,0 UV-I -16,0 C -7,6 C 2,1 km/h (1 Bft)
06.02.2012 14:45 -10,9 C -2,8 C -7,1 C -6,8 C -6,8 C 4,1 C 67 % 61 % 100 % 1037,2 hPa 0,0 l/m 2,3 km/h (1 Bft) NW 315 5 min 0,0 UV-I -15,8 C -6,8 C 3,9 km/h (1 Bft)
06.02.2012 14:50 -11,0 C -2,8 C -7,2 C -6,4 C -6,4 C 4,6 C 66 % 56 % 100 % 1037,2 hPa 0,0 l/m 1,9 km/h (1 Bft) NW 315 5 min 0,0 UV-I -16,1 C -6,4 C 0,0 km/h (0 Bft)
06.02.2012 14:55 -10,9 C -2,8 C -6,5 C -6,7 C -6,7 C 4,2 C 65 % 57 % 100 % 1037,2 hPa 0,0 l/m 2,3 km/h (1 Bft) N-NO 22 5 min 0,0 UV-I -16,2 C -6,7 C 4,7 km/h (1 Bft)
06.02.2012 15:00 -10,9 C -2,8 C -6,3 C -6,6 C -6,6 C 4,3 C 65 % 54 % 100 % 1037,2 hPa 0,0 l/m 2,1 km/h (1 Bft) O-SO 112 5 min 0,0 UV-I -16,2 C -6,6 C 2,6 km/h (1 Bft)
06.02.2012 15:12 -11,0 C -2,7 C -7,7 C -8,4 C -8,4 C 2,6 C 64 % 54 % 68 % 1037,2 hPa 0,0 l/m 3,4 km/h (1 Bft) N 0 0 min 0,0 UV-I -16,4 C -8,4 C 4,8 km/h (1 Bft)
06.02.2012 15:20 -11,1 C -2,7 C -9,3 C -8,1 C -8,1 C 3,0 C 63 % 56 % 79 % 1037,2 hPa 0,0 l/m 2,6 km/h (1 Bft) O-NO 67 0 min 0,0 UV-I -16,7 C -8,1 C 3,9 km/h (1 Bft)
06.02.2012 15:25 -11,1 C -2,7 C -9,5 C -8,3 C -8,3 C 2,8 C 64 % 59 % 74 % 1037,2 hPa 0,0 l/m 2,7 km/h (1 Bft) W-NW 292 0 min 0,0 UV-I -16,5 C -8,3 C 1,6 km/h (1 Bft)
06.02.2012 15:30 -11,1 C -2,7 C -9,7 C -8,6 C -8,6 C 2,5 C 64 % 59 % 66 % 1037,2 hPa 0,0 l/m 2,7 km/h (1 Bft) O-NO 67 5 min 0,0 UV-I -16,5 C -8,6 C 5,0 km/h (1 Bft)
06.02.2012 15:35 -11,1 C -2,7 C -9,9 C -9,1 C -9,1 C 2,0 C 64 % 60 % 53 % 1037,2 hPa 0,0 l/m 2,9 km/h (1 Bft) O-NO 67 5 min 0,0 UV-I -16,5 C -9,1 C 3,9 km/h (1 Bft)
06.02.2012 15:40 -11,3 C -2,7 C -10,1 C -9,7 C -9,7 C 1,6 C 64 % 60 % 42 % 1037,2 hPa 0,0 l/m 3,2 km/h (1 Bft) SO 135 0 min 0,0 UV-I -16,7 C -9,7 C 5,1 km/h (1 Bft)
06.02.2012 15:45 -11,3 C -2,7 C -10,4 C -10,1 C -10,1 C 1,2 C 64 % 61 % 32 % 1037,2 hPa 0,0 l/m 3,2 km/h (1 Bft) O-NO 67 0 min 0,0 UV-I -16,7 C -10,1 C 1,8 km/h (1 Bft)
06.02.2012 15:50 -11,3 C -2,7 C -10,5 C -9,5 C -9,5 C 1,8 C 64 % 61 % 47 % 1037,2 hPa 0,0 l/m 2,6 km/h (1 Bft) N-NW 337 5 min 0,0 UV-I -16,7 C -9,5 C 0,0 km/h (0 Bft)
06.02.2012 15:55 -11,3 C -2,7 C -10,6 C -8,8 C -8,8 C 2,5 C 64 % 61 % 66 % 1037,2 hPa 0,0 l/m 2,1 km/h (1 Bft) O 90 5 min 0,0 UV-I -16,7 C -8,8 C 3,4 km/h (1 Bft)
06.02.2012 16:00 -11,5 C -2,7 C -10,7 C -9,1 C -9,1 C 2,4 C 64 % 61 % 63 % 1037,2 hPa 0,0 l/m 2,1 km/h (1 Bft) O-NO 67 5 min 0,0 UV-I -16,9 C -9,1 C 2,7 km/h (1 Bft)
06.02.2012 16:11 -11,6 C -2,7 C -10,9 C -10,8 C -10,8 C 0,8 C 64 % 62 % 21 % 1037,2 hPa 0,0 l/m 3,1 km/h (1 Bft) N 0 0 min 0,0 UV-I -17,0 C -10,8 C 7,9 km/h (2 Bft)
06.02.2012 16:20 -11,7 C -2,7 C -10,9 C -9,7 C -9,7 C 2,0 C 65 % 64 % 53 % 1037,2 hPa 0,0 l/m 1,8 km/h (1 Bft) NO 45 9 min 0,0 UV-I -16,9 C -9,7 C 0,0 km/h (0 Bft)
06.02.2012 16:25 -11,7 C -2,7 C -10,9 C -9,9 C -9,9 C 1,8 C 65 % 64 % 47 % 1037,2 hPa 0,0 l/m 1,4 km/h (1 Bft) O-NO 67 5 min 0,0 UV-I -16,9 C -9,9 C 0,0 km/h (0 Bft)
06.02.2012 16:30 -11,7 C -2,7 C -11,1 C -10,1 C -10,1 C 1,6 C 65 % 65 % 42 % 1037,2 hPa 0,0 l/m 1,3 km/h (1 Bft) N-NW 337 5 min 0,0 UV-I -16,9 C -10,1 C 4,7 km/h (1 Bft)
06.02.2012 16:35 -11,7 C -2,7 C -11,3 C -11,4 C -11,4 C 0,3 C 65 % 65 % 8 % 1037,2 hPa 0,0 l/m 2,4 km/h (1 Bft) NO 45 0 min 0,0 UV-I -16,9 C -11,4 C 2,6 km/h (1 Bft)
06.02.2012 16:40 -11,7 C -2,5 C -11,3 C -11,9 C -12,4 C 0,0 C 66 % 65 % 0 % 1037,2 hPa 0,0 l/m 2,9 km/h (1 Bft) O-NO 67 0 min 0,0 UV-I -16,7 C -12,4 C 2,7 km/h (1 Bft)
06.02.2012 16:45 -11,9 C -2,5 C -11,4 C -12,0 C -12,2 C 0,0 C 66 % 65 % 0 % 1037,2 hPa 0,0 l/m 2,3 km/h (1 Bft) O-SO 112 0 min 0,0 UV-I -16,9 C -12,2 C 3,1 km/h (1 Bft)
06.02.2012 16:50 -12,0 C -2,5 C -11,5 C -12,1 C -12,3 C 0,0 C 66 % 65 % 0 % 1037,2 hPa 0,0 l/m 2,1 km/h (1 Bft) O-NO 67 0 min 0,0 UV-I -17,0 C -12,3 C 3,1 km/h (1 Bft)
06.02.2012 16:55 -12,1 C -2,5 C -11,5 C -12,3 C -12,8 C 0,0 C 66 % 66 % 0 % 1037,2 hPa 0,0 l/m 2,1 km/h (1 Bft) O 90 0 min 0,0 UV-I -17,1 C -12,8 C 1,8 km/h (1 Bft)
06.02.2012 17:00 -12,1 C -2,5 C -11,5 C -12,5 C -13,2 C 0,0 C 66 % 66 % 0 % 1037,2 hPa 0,0 l/m 2,1 km/h (1 Bft) O-NO 67 0 min 0,0 UV-I -17,1 C -13,2 C 2,6 km/h (1 Bft)
06.02.2012 17:11 -12,3 C -2,5 C -11,7 C -12,8 C -13,7 C 0,0 C 67 % 67 % 0 % 1037,2 hPa 0,0 l/m 0,3 km/h (0 Bft) N 0 0 min 0,0 UV-I -17,1 C -13,7 C 0,0 km/h (0 Bft)
06.02.2012 17:20 -12,5 C -2,6 C -11,9 C -13,2 C -14,5 C 0,0 C 68 % 68 % 0 % 1037,2 hPa 0,0 l/m 0,0 km/h (0 Bft) N-NW 337 0 min 0,0 UV-I -17,2 C -14,5 C 0,0 km/h (0 Bft)
06.02.2012 17:25 -12,7 C -2,6 C -12,1 C -13,4 C -14,9 C 0,0 C 68 % 68 % 0 % 1037,2 hPa 0,0 l/m 0,0 km/h (0 Bft) N-NW 337 0 min 0,0 UV-I -17,3 C -14,9 C 0,0 km/h (0 Bft)
06.02.2012 17:30 -13,0 C -2,6 C -12,1 C -13,7 C -15,2 C 0,0 C 68 % 68 % 0 % 1037,2 hPa 0,0 l/m 0,0 km/h (0 Bft) N-NO 22 0 min 0,0 UV-I -17,6 C -15,2 C 0,0 km/h (0 Bft)
06.02.2012 17:35 -13,2 C -2,6 C -12,1 C -14,0 C -15,6 C 0,0 C 69 % 69 % 0 % 1037,2 hPa 0,0 l/m 0,2 km/h (0 Bft) N-NO 22 0 min 0,0 UV-I -17,7 C -15,6 C 0,0 km/h (0 Bft)
06.02.2012 17:40 -13,3 C -2,6 C -12,3 C -14,1 C -15,6 C 0,0 C 69 % 70 % 0 % 1037,2 hPa 0,0 l/m 0,3 km/h (0 Bft) NW 315 0 min 0,0 UV-I -17,7 C -15,6 C 1,9 km/h (1 Bft)
06.02.2012 17:45 -13,3 C -2,6 C -12,3 C -14,1 C -15,6 C 0,0 C 70 % 71 % 0 % 1037,2 hPa 0,0 l/m 0,3 km/h (0 Bft) NW 315 0 min 0,0 UV-I -17,6 C -15,6 C 0,0 km/h (0 Bft)
06.02.2012 17:50 -13,3 C -2,6 C -12,5 C -14,1 C -15,6 C 0,0 C 70 % 71 % 0 % 1037,2 hPa 0,0 l/m 0,2 km/h (0 Bft) N-NO 22 0 min 0,0 UV-I -17,6 C -15,6 C 0,0 km/h (0 Bft)
06.02.2012 17:55 -13,6 C -2,6 C -12,5 C -14,3 C -15,8 C 0,0 C 71 % 71 % 0 % 1037,2 hPa 0,0 l/m 0,2 km/h (0 Bft) N-NO 22 0 min 0,0 UV-I -17,7 C -15,8 C 0,0 km/h (0 Bft)
06.02.2012 18:00 -13,6 C -2,6 C -12,7 C -14,3 C -15,8 C 0,0 C 71 % 71 % 0 % 1037,2 hPa 0,0 l/m 0,0 km/h (0 Bft) N-NW 337 0 min 0,0 UV-I -17,7 C -15,8 C 0,0 km/h (0 Bft)
06.02.2012 18:11 -13,8 C -2,6 C -12,9 C -14,7 C -16,4 C 0,0 C 72 % 72 % 0 % 1037,2 hPa 0,0 l/m 0,0 km/h (0 Bft) N 0 0 min 0,0 UV-I -17,7 C -16,4 C 0,0 km/h (0 Bft)
06.02.2012 18:20 -13,9 C -2,6 C -13,1 C -14,8 C -16,6 C 0,0 C 72 % 72 % 0 % 1037,2 hPa 0,0 l/m 0,0 km/h (0 Bft) NO 45 0 min 0,0 UV-I -17,8 C -16,6 C 0,0 km/h (0 Bft)
06.02.2012 18:25 -14,1 C -2,6 C -13,2 C -15,0 C -16,8 C 0,0 C 72 % 72 % 0 % 1037,2 hPa 0,0 l/m 0,0 km/h (0 Bft) N-NO 22 0 min 0,0 UV-I -18,0 C -16,8 C 0,0 km/h (0 Bft)
06.02.2012 18:30 -14,1 C -2,6 C -13,2 C -15,1 C -17,0 C 0,0 C 72 % 72 % 0 % 1037,2 hPa 0,0 l/m 0,0 km/h (0 Bft) N-NO 22 0 min 0,0 UV-I -18,0 C -17,0 C 0,0 km/h (0 Bft)
06.02.2012 18:35 -14,3 C -2,6 C -13,3 C -15,3 C -17,2 C 0,0 C 73 % 73 % 0 % 1037,2 hPa 0,0 l/m 0,0 km/h (0 Bft) N-NO 22 0 min 0,0 UV-I -18,0 C -17,2 C 0,0 km/h (0 Bft)
06.02.2012 18:40 -14,4 C -2,6 C -13,3 C -15,3 C -17,2 C 0,0 C 73 % 73 % 0 % 1037,2 hPa 0,0 l/m 0,0 km/h (0 Bft) N-NO 22 0 min 0,0 UV-I -18,1 C -17,2 C 0,0 km/h (0 Bft)
06.02.2012 18:45 -14,3 C -2,6 C -13,3 C -15,3 C -17,4 C 0,0 C 73 % 73 % 0 % 1037,2 hPa 0,0 l/m 0,0 km/h (0 Bft) N-NO 22 0 min 0,0 UV-I -18,0 C -17,4 C 0,0 km/h (0 Bft)
06.02.2012 18:50 -14,5 C -2,6 C -13,3 C -15,5 C -17,4 C 0,0 C 74 % 73 % 0 % 1037,2 hPa 0,0 l/m 0,0 km/h (0 Bft) N-NO 22 0 min 0,0 UV-I -18,1 C -17,4 C 0,0 km/h (0 Bft)
06.02.2012 18:55 -14,6 C -2,6 C -13,5 C -15,7 C -17,8 C 0,0 C 74 % 73 % 0 % 1037,2 hPa 0,0 l/m 0,0 km/h (0 Bft) N-NW 337 0 min 0,0 UV-I -18,2 C -17,8 C 0,0 km/h (0 Bft)
06.02.2012 19:00 -14,7 C -2,6 C -13,6 C -15,7 C -17,8 C 0,0 C 74 % 73 % 0 % 1037,2 hPa 0,0 l/m 0,0 km/h (0 Bft) N-NW 337 0 min 0,0 UV-I -18,3 C -17,8 C 0,0 km/h (0 Bft)
06.02.2012 19:11 -14,8 C -2,6 C -13,7 C -15,8 C -17,8 C 0,0 C 75 % 74 % 0 % 1037,2 hPa 0,0 l/m 0,0 km/h (0 Bft) N 0 0 min 0,0 UV-I -18,2 C -17,8 C 0,0 km/h (0 Bft)
06.02.2012 19:20 -15,0 C -2,6 C -13,7 C -16,0 C -17,9 C 0,0 C 75 % 74 % 0 % 1037,2 hPa 0,0 l/m 0,0 km/h (0 Bft) N-NO 22 0 min 0,0 UV-I -18,4 C -17,9 C 0,0 km/h (0 Bft)
06.02.2012 19:25 -14,9 C -2,6 C -13,8 C -15,9 C -17,8 C 0,0 C 75 % 75 % 0 % 1037,2 hPa 0,0 l/m 0,2 km/h (0 Bft) NO 45 0 min 0,0 UV-I -18,3 C -17,8 C 0,0 km/h (0 Bft)
06.02.2012 19:30 -14,9 C -2,7 C -13,7 C -15,8 C -17,6 C 0,0 C 76 % 75 % 0 % 1037,2 hPa 0,0 l/m 0,6 km/h (0 Bft) N-NO 22 0 min 0,0 UV-I -18,2 C -17,6 C 2,7 km/h (1 Bft)
06.02.2012 19:35 -14,9 C -2,7 C -13,7 C -15,7 C -17,2 C 0,0 C 76 % 76 % 0 % 1037,2 hPa 0,0 l/m 0,5 km/h (0 Bft) O-NO 67 0 min 0,0 UV-I -18,2 C -17,2 C 0,0 km/h (0 Bft)
06.02.2012 19:40 -14,8 C -2,7 C -13,7 C -15,6 C -17,2 C 0,0 C 76 % 76 % 0 % 1037,2 hPa 0,0 l/m 0,5 km/h (0 Bft) O-NO 67 0 min 0,0 UV-I -18,1 C -17,2 C 0,0 km/h (0 Bft)
06.02.2012 19:45 -14,8 C -2,7 C -13,9 C -15,7 C -17,4 C 0,0 C 76 % 76 % 0 % 1037,2 hPa 0,0 l/m 0,0 km/h (0 Bft) O-NO 67 0 min 0,0 UV-I -18,1 C -17,4 C 0,0 km/h (0 Bft)
06.02.2012 19:50 -14,8 C -2,7 C -13,9 C -15,7 C -17,4 C 0,0 C 76 % 76 % 0 % 1037,2 hPa 0,0 l/m 0,0 km/h (0 Bft) O-NO 67 0 min 0,0 UV-I -18,1 C -17,4 C 0,0 km/h (0 Bft)
06.02.2012 19:55 -14,9 C -2,7 C -14,1 C -15,8 C -17,6 C 0,0 C 76 % 75 % 0 % 1037,2 hPa 0,0 l/m 0,0 km/h (0 Bft) NO 45 0 min 0,0 UV-I -18,2 C -17,6 C 0,0 km/h (0 Bft)
06.02.2012 20:00 -14,9 C -2,7 C -14,1 C -15,8 C -17,6 C 0,0 C 76 % 76 % 0 % 1037,2 hPa 0,0 l/m 0,0 km/h (0 Bft) O-NO 67 0 min 0,0 UV-I -18,2 C -17,6 C 0,0 km/h (0 Bft)
06.02.2012 20:11 -14,9 C -2,7 C -14,1 C -15,9 C -18,0 C 0,0 C 76 % 76 % 0 % 1037,2 hPa 0,0 l/m 0,0 km/h (0 Bft) N 0 0 min 0,0 UV-I -18,2 C -18,0 C 0,0 km/h (0 Bft)
06.02.2012 20:20 -15,3 C -2,7 C -14,1 C -16,2 C -18,1 C 0,0 C 76 % 77 % 0 % 1037,2 hPa 0,0 l/m 0,0 km/h (0 Bft) N-NO 22 0 min 0,0 UV-I -18,5 C -18,1 C 0,0 km/h (0 Bft)
06.02.2012 20:25 -15,3 C -2,7 C -14,1 C -16,2 C -18,1 C 0,0 C 77 % 77 % 0 % 1037,2 hPa 0,0 l/m 0,0 km/h (0 Bft) N-NO 22 0 min 0,0 UV-I -18,4 C -18,1 C 0,0 km/h (0 Bft)
06.02.2012 20:30 -15,3 C -2,7 C -14,1 C -16,2 C -18,1 C 0,0 C 77 % 77 % 0 % 1037,2 hPa 0,0 l/m 0,0 km/h (0 Bft) N-NO 22 0 min 0,0 UV-I -18,4 C -18,1 C 0,0 km/h (0 Bft)
06.02.2012 20:35 -15,3 C -2,7 C -14,3 C -16,2 C -18,1 C 0,0 C 77 % 77 % 0 % 1037,2 hPa 0,0 l/m 0,0 km/h (0 Bft) N-NO 22 0 min 0,0 UV-I -18,4 C -18,1 C 0,0 km/h (0 Bft)
06.02.2012 20:40 -15,4 C -2,7 C -14,3 C -16,4 C -18,3 C 0,0 C 77 % 77 % 0 % 1037,2 hPa 0,0 l/m 0,2 km/h (0 Bft) N 360 0 min 0,0 UV-I -18,5 C -18,3 C 0,0 km/h (0 Bft)
06.02.2012 20:45 -15,5 C -2,7 C -14,3 C -16,4 C -18,3 C 0,0 C 77 % 77 % 0 % 1037,2 hPa 0,0 l/m 0,2 km/h (0 Bft) N-NO 22 0 min 0,0 UV-I -18,6 C -18,3 C 0,0 km/h (0 Bft)
06.02.2012 20:50 -15,5 C -2,7 C -14,3 C -16,4 C -18,3 C 0,0 C 77 % 77 % 0 % 1037,2 hPa 0,0 l/m 0,0 km/h (0 Bft) N-NO 22 0 min 0,0 UV-I -18,6 C -18,3 C 0,0 km/h (0 Bft)
06.02.2012 20:55 -15,5 C -2,7 C -14,6 C -16,4 C -18,3 C 0,0 C 77 % 76 % 0 % 1037,2 hPa 0,0 l/m 0,0 km/h (0 Bft) N-NO 22 0 min 0,0 UV-I -18,6 C -18,3 C 0,0 km/h (0 Bft)
06.02.2012 21:00 -15,5 C -2,7 C -14,7 C -16,4 C -18,3 C 0,0 C 77 % 77 % 0 % 1037,2 hPa 0,0 l/m 0,0 km/h (0 Bft) N-NO 22 0 min 0,0 UV-I -18,6 C -18,3 C 0,0 km/h (0 Bft)
06.02.2012 21:10 -15,7 C -2,8 C -14,7 C -16,7 C -18,7 C 0,0 C 77 % 77 % 0 % 1037,2 hPa 0,0 l/m 0,0 km/h (0 Bft) N 0 0 min 0,0 UV-I -18,8 C -18,7 C 0,0 km/h (0 Bft)
06.02.2012 21:20 -15,7 C -2,8 C -14,7 C -16,8 C -18,9 C 0,0 C 78 % 77 % 0 % 1037,2 hPa 0,0 l/m 0,0 km/h (0 Bft) N-NO 22 0 min 0,0 UV-I -18,6 C -18,9 C 0,0 km/h (0 Bft)
06.02.2012 21:25 -16,0 C -2,8 C -14,7 C -17,0 C -19,1 C 0,0 C 78 % 77 % 0 % 1037,2 hPa 0,0 l/m 0,0 km/h (0 Bft) N-NO 22 0 min 0,0 UV-I -18,9 C -19,1 C 0,0 km/h (0 Bft)
06.02.2012 21:30 -15,9 C -2,8 C -14,9 C -16,9 C -18,9 C 0,0 C 78 % 77 % 0 % 1037,2 hPa 0,0 l/m 0,0 km/h (0 Bft) N-NO 22 0 min 0,0 UV-I -18,8 C -18,9 C 0,0 km/h (0 Bft)
06.02.2012 21:35 -15,9 C -2,8 C -15,1 C -16,9 C -18,9 C 0,0 C 79 % 77 % 0 % 1037,2 hPa 0,0 l/m 0,0 km/h (0 Bft) N-NO 22 0 min 0,0 UV-I -18,7 C -18,9 C 0,0 km/h (0 Bft)
06.02.2012 21:40 -16,0 C -2,8 C -15,1 C -17,0 C -18,9 C 0,0 C 79 % 78 % 0 % 1038,7 hPa 0,0 l/m 0,0 km/h (0 Bft) N-NO 22 0 min 0,0 UV-I -18,8 C -18,9 C 0,0 km/h (0 Bft)
06.02.2012 21:44 -16,1 C -2,8 C -14,9 C -17,2 C -19,3 C 0,0 C 79 % 78 % 0 % 1038,7 hPa 0,0 l/m 0,0 km/h (0 Bft) N-NO 22 0 min 0,0 UV-I -18,9 C -19,3 C 0,0 km/h (0 Bft)
06.02.2012 21:49 -16,1 C -2,8 C -14,9 C -17,2 C -19,5 C 0,0 C 79 % 78 % 0 % 1038,7 hPa 0,0 l/m 0,0 km/h (0 Bft) N-NO 22 0 min 0,0 UV-I -18,9 C -19,5 C 0,0 km/h (0 Bft)
06.02.2012 21:55 -16,3 C -2,8 C -14,9 C -17,5 C -19,9 C 0,0 C 78 % 78 % 0 % 1038,7 hPa 0,0 l/m 0,0 km/h (0 Bft) N-NO 22 0 min 0,0 UV-I -19,2 C -19,9 C 0,0 km/h (0 Bft)
06.02.2012 22:00 -16,3 C -2,8 C -14,9 C -17,6 C -20,1 C 0,0 C 78 % 78 % 0 % 1038,7 hPa 0,0 l/m 0,0 km/h (0 Bft) N-NO 22 0 min 0,0 UV-I -19,2 C -20,1 C 0,0 km/h (0 Bft)
06.02.2012 22:11 -16,5 C -2,8 C -15,2 C -17,7 C -20,1 C 0,0 C 79 % 78 % 0 % 1038,7 hPa 0,0 l/m 0,0 km/h (0 Bft) N 0 0 min 0,0 UV-I -19,3 C -20,1 C 0,0 km/h (0 Bft)
06.02.2012 22:20 -16,5 C -2,8 C -15,3 C -17,7 C -20,1 C 0,0 C 79 % 79 % 0 % 1038,7 hPa 0,0 l/m 0,0 km/h (0 Bft) NW 315 0 min 0,0 UV-I -19,3 C -20,1 C 0,0 km/h (0 Bft)
06.02.2012 22:25 -16,5 C -2,8 C -15,3 C -17,6 C -19,9 C 0,0 C 80 % 79 % 0 % 1038,7 hPa 0,0 l/m 0,0 km/h (0 Bft) NW 315 0 min 0,0 UV-I -19,1 C -19,9 C 0,0 km/h (0 Bft)
06.02.2012 22:30 -16,5 C -2,8 C -15,4 C -17,6 C -19,9 C 0,0 C 80 % 79 % 0 % 1038,7 hPa 0,0 l/m 0,0 km/h (0 Bft) N-NO 22 0 min 0,0 UV-I -19,1 C -19,9 C 0,0 km/h (0 Bft)
06.02.2012 22:35 -16,5 C -2,8 C -15,5 C -17,6 C -19,9 C 0,0 C 80 % 79 % 0 % 1038,7 hPa 0,0 l/m 0,0 km/h (0 Bft) N-NO 22 0 min 0,0 UV-I -19,1 C -19,9 C 0,0 km/h (0 Bft)
06.02.2012 22:40 -16,7 C -2,8 C -15,5 C -17,9 C -20,3 C 0,0 C 80 % 79 % 0 % 1038,4 hPa 0,0 l/m 0,0 km/h (0 Bft) N-NO 22 0 min 0,0 UV-I -19,3 C -20,3 C 0,0 km/h (0 Bft)
06.02.2012 22:45 -16,8 C -2,8 C -15,5 C -18,0 C -20,4 C 0,0 C 80 % 79 % 0 % 1038,4 hPa 0,0 l/m 0,0 km/h (0 Bft) N-NO 22 0 min 0,0 UV-I -19,4 C -20,4 C 0,0 km/h (0 Bft)
06.02.2012 22:50 -16,9 C -2,8 C -15,6 C -18,1 C -20,4 C 0,0 C 80 % 79 % 0 % 1038,4 hPa 0,0 l/m 0,0 km/h (0 Bft) N-NO 22 0 min 0,0 UV-I -19,5 C -20,4 C 0,0 km/h (0 Bft)
06.02.2012 22:55 -17,0 C -2,8 C -15,6 C -18,2 C -20,6 C 0,0 C 80 % 79 % 0 % 1038,4 hPa 0,0 l/m 0,0 km/h (0 Bft) N-NO 22 0 min 0,0 UV-I -19,6 C -20,6 C 0,0 km/h (0 Bft)
06.02.2012 23:00 -16,9 C -2,8 C -15,6 C -18,1 C -20,4 C 0,0 C 80 % 79 % 0 % 1038,6 hPa 0,0 l/m 0,0 km/h (0 Bft) N-NO 22 0 min 0,0 UV-I -19,5 C -20,4 C 0,0 km/h (0 Bft)
06.02.2012 23:10 -17,1 C -3,0 C -15,7 C -18,3 C -20,6 C 0,0 C 80 % 79 % 0 % 1038,6 hPa 0,0 l/m 0,0 km/h (0 Bft) N 0 0 min 0,0 UV-I -19,7 C -20,6 C 0,0 km/h (0 Bft)
06.02.2012 23:20 -17,2 C -3,0 C -15,7 C -18,3 C -20,4 C 0,0 C 80 % 79 % 0 % 1038,4 hPa 0,0 l/m 0,0 km/h (0 Bft) N-NO 22 0 min 0,0 UV-I -19,8 C -20,4 C 0,0 km/h (0 Bft)
06.02.2012 23:25 -17,3 C -3,0 C -15,7 C -18,4 C -20,6 C 0,0 C 80 % 79 % 0 % 1038,4 hPa 0,0 l/m 0,0 km/h (0 Bft) NW 315 0 min 0,0 UV-I -19,9 C -20,6 C 0,0 km/h (0 Bft)
06.02.2012 23:30 -17,3 C -3,0 C -15,9 C -18,4 C -20,6 C 0,0 C 80 % 79 % 0 % 1038,4 hPa 0,0 l/m 0,0 km/h (0 Bft) NW 315 0 min 0,0 UV-I -19,9 C -20,6 C 0,0 km/h (0 Bft)
06.02.2012 23:35 -17,3 C -3,0 C -15,9 C -18,3 C -20,4 C 0,0 C 81 % 79 % 0 % 1038,4 hPa 0,0 l/m 0,0 km/h (0 Bft) NW 315 0 min 0,0 UV-I -19,8 C -20,4 C 0,0 km/h (0 Bft)
06.02.2012 23:40 -17,3 C -3,0 C -15,9 C -18,3 C -20,4 C 0,0 C 81 % 80 % 0 % 1038,4 hPa 0,0 l/m 0,0 km/h (0 Bft) NW 315 0 min 0,0 UV-I -19,8 C -20,4 C 0,0 km/h (0 Bft)
06.02.2012 23:45 -17,3 C -3,0 C -16,0 C -18,3 C -20,4 C 0,0 C 81 % 80 % 0 % 1038,4 hPa 0,0 l/m 0,0 km/h (0 Bft) NW 315 0 min 0,0 UV-I -19,8 C -20,4 C 0,0 km/h (0 Bft)
06.02.2012 23:50 -17,4 C -3,0 C -16,0 C -18,4 C -20,4 C 0,0 C 81 % 80 % 0 % 1038,4 hPa 0,0 l/m 0,0 km/h (0 Bft) NW 315 0 min 0,0 UV-I -19,9 C -20,4 C 0,0 km/h (0 Bft)
06.02.2012 23:55 -17,3 C -3,0 C -16,0 C -18,4 C -20,6 C 0,0 C 81 % 80 % 0 % 1038,4 hPa 0,0 l/m 0,0 km/h (0 Bft) NW 315 0 min 0,0 UV-I -19,8 C -20,6 C 0,0 km/h (0 Bft)
_ Min-Zeit 08:10 10:55 07:45 07:35 07:30 00:00 15:20 15:00 00:00 00:00 - 00:00 - - - 00:00 08:10 07:30 00:00
Minimum _ -18,9 C -3,2 C -17,3 C -20,1 C -22,8 C 0,0 C 63 % 54 % 0 % 1036,8 hPa - 0,0 km/h (0 Bft) - - - 0,0 UV-I -21,2 C -22,8 C 0,0 km/h (0 Bft)
_ Max-Zeit 14:45 00:00 15:00 14:50 14:50 12:20 00:00 00:00 12:12 21:40 00:00 13:25 - - 12:12 00:00 13:45 14:50 12:55
Maximum _ -10,9 C -1,7 C -6,3 C -6,4 C -6,4 C 4,7 C 84 % 84 % 100 % 1038,7 hPa 0,0 l/m 3,9 km/h
NO (1 Bft)
- - 12 min 0,0 UV-I -15,5 C -6,4 C 9,7 km/h
O-SO (2 Bft)
Durchschnitt _ -15,3 C -2,7 C -14,2 C -15,4 C -16,9 C 0,6 C 78 % 77 % 15 % 1037,3 hPa #0,0 l/m 0,6 km/h (0 Bft) O-NO - #2:04 h 0,0 UV-I -18,3 C -16,9 C 1,0 km/h (0 Bft)
2012 www.wetterstation-wechselburg.de